[Date Prev][Date Next][Thread Prev][Thread Next] - [Date Index][Thread Index][Author Index]
2 Line ISS Keps 1-28
- Subject: [sarex] 2 Line ISS Keps 1-28
- From: "Dave Larsen PhD" <doc@xxxxxxxxxxx>
- Date: Mon, 28 Jan 2002 02:57:51 -0800
ISS
1 25544U 98067A 02028.20394628 .00073371 00000-0 92795-3 0 128
2 25544 51.6402 36.6536 0006785 4.7204 51.0290 15.58825229182197
----
Via the sarex mailing list at AMSAT.ORG courtesy of AMSAT-NA.
To unsubscribe, send "unsubscribe sarex" to Majordomo@amsat.org
AMSAT Home